Regional Weather Roundup
Issued by NWS

Home | Current Version | Previous Version | Text Only | Print | Product List | Glossary On
Versions: 1 2 3 4 5 6 7 8 9 10 11 12 13 14 15 16 17 18 19 20 21 22 23 24 25 26 27 28 29 30 31 32 33 34 35 36 37 38 39 40 41 42 43 44 45 46 47 48 49 50
000
ASUS43 KMKX 271100
RWRWI

WISCONSIN REGIONAL WEATHER ROUNDUP
NATIONAL WEATHER SERVICE MILWAUKEE/SULLIVAN WI
600 AM CDT FRI MAY 27 2016

NOTE: "FAIR" INDICATES FEW OR NO CLOUDS BELOW 12,000 FEET WITH NO
SIGNIFICANT WEATHER AND/OR OBSTRUCTIONS TO VISIBILITY.

WIZ001-002-006>008-014>016-023>028-271200-
NORTHWEST WISCONSIN

CITY           SKY/WX    TMP DP  RH WIND       PRES   REMARKS
SUPERIOR ARPT  FOG       45  45 100 CALM      29.86R VSB<1/4
ASHLAND        MOCLDY    47  46  97 N5        29.88R
HAYWARD        CLOUDY    51  49  92 N5        29.86F
SIREN          CLOUDY    60  54  79 CALM      29.83F
CUMBERLAND     CLOUDY    57  54  88 E6        29.85F
RICE LAKE      CLOUDY    59  56  90 CALM      29.87S
CHETEK         CLOUDY    58  57  96 CALM      29.87R
LADYSMITH      CLOUDY    55  54  95 CALM      29.89R
EAU CLAIRE     NOT AVBL
MENOMONIE      CLOUDY    63  57  82 CALM      29.86R
NEW RICHMOND   LGT RAIN  62  57  84 S6        29.86R
OSCEOLA        LGT RAIN  64  57  79 SE9       29.87R
$$

WIZ003>005-009-010-017-018-271200-
NORTH CENTRAL WISCONSIN

CITY           SKY/WX    TMP DP  RH WIND       PRES   REMARKS
MANITOWISH WTR NOT AVBL
ARBOR VITAE    MOCLDY    52  51  96 CALM      29.90S FOG
WOODRUFF       MOCLDY    52  51  96 CALM      29.90S FOG
RHINELANDER    PTCLDY    53  52  96 CALM      29.92R FOG
EAGLE RIVER    FOG       51  51 100 CALM      29.90S VSB<1/4
LAND O LAKES     N/A     50  50 100 CALM      29.91S FOG
PHILLIPS       CLOUDY    52  52 100 CALM      29.88S
TOMAHAWK       FOG       48  47  97 CALM      29.91R VSB 1/2
MEDFORD        CLOUDY    55  55 100 CALM      29.89R
MERRILL        CLOUDY    49  49 100 CALM      29.91R FOG
$$

WIZ029-030-035-036-043>047-271200-
CENTRAL WISCONSIN

CITY           SKY/WX    TMP DP  RH WIND       PRES   REMARKS
WAUSAU         CLOUDY    58  55  90 CALM      29.87F
MOSINEE        PTCLDY    57  57 100 CALM      29.89F
MARSHFIELD     CLOUDY    59  55  87 NE6       29.86F
STEVENS POINT  PTCLDY    51  51 100 NE3       29.89S
WAUPACA        FOG       58  58  98 CALM      29.88F VSB 1/2
WAUTOMA        CLOUDY    57  56  96 CALM      29.87F
WISC RAPIDS    MOCLDY    59  55  87 CALM      29.88S
CAMP DOUGLAS   FOG       55 N/A N/A E3        29.85S VSB 3/4
$$

WIZ011>013-019>022-031-037>040-048>050-271200-
NORTHEAST WISCONSIN

CITY           SKY/WX    TMP DP  RH WIND       PRES   REMARKS
ANTIGO         CLEAR     52  52  99 CALM      29.91S
SHAWANO        FOG       58  56  95 CALM      29.89S VSB 3/4
OCONTO         CLEAR    N/A N/A N/A CALM      29.87F
STURGEON BAY   NOT AVBL
GREEN BAY      CLEAR     59  57  93 CALM      29.87F
MANITOWOC      NOT AVBL
APPLETON       MOCLDY    61  57  88 CALM      29.87S
CLINTONVILLE   FOG       54  54 100 CALM      29.89R VSB 1/2
OSHKOSH        PTCLDY    59  55  87 N3        29.87S
$$

WIZ032>034-041-042-053>061-271200-
SOUTHWEST WISCONSIN

CITY           SKY/WX    TMP DP  RH WIND       PRES   REMARKS
LA CROSSE      CLOUDY    65  60  84 SE6       29.83S
SPARTA         PTCLDY    57  57 100 CALM      29.85S
VIROQUA        CLOUDY    63  62  97 NE3       29.85S
BOSCOBEL       RAIN      65  64  97 N12       29.84F FOG
PRAIRIE DU CHI LGT RAIN  65  63  95 CALM      29.85R
PLATTEVILLE    CLOUDY    64  63  98 N7        29.83F
$$

WIZ056-057-062-063-064-067-068-271200-
SOUTH CENTRAL WISCONSIN

CITY           SKY/WX    TMP DP  RH WIND       PRES   REMARKS
REEDSBURG      CLOUDY    60  60 100 CALM      29.85S
BARABOO/DELLS  CLOUDY    60  58  91 CALM      29.86F
LONE ROCK      RAIN      64  61  88 N9        29.87F
MINERAL POINT  CLOUDY    63  63 100 N6        29.84F
MADISON        TSTM      66  60  81 N8        29.83F
MIDDLETON      CLOUDY    65  61  87 SW8       29.90R
WATERTOWN      MOCLDY    62  62  98 SE5       29.87R
MONROE         CLOUDY    63  61  94 SW6       29.86F
JANESVILLE     CLOUDY    70  66  88 CALM      29.82F
$$

WIZ051-052-058>065-066-070>072-271200-
SOUTHEAST WISCONSIN

CITY           SKY/WX    TMP DP  RH WIND       PRES   REMARKS
MILWAUKEE      CLOUDY    70  65  84 CALM      29.85F
WAUKESHA       CLEAR     64  63  94 CALM      29.87F
MILWAUKEE/TIMM MOCLDY    61  55  82 CALM      29.88S
RACINE         CLOUDY    66  63  90 S5        29.89S
BURLINGTON     PTCLDY    60  59  97 CALM      29.88S
KENOSHA        CLOUDY    69  66  90 SW6       29.87F
FOND DU LAC    MOCLDY    58  57  97 CALM      29.88S
SHEBOYGAN      CLOUDY    58  56  93 CALM      29.88S FOG
WEST BEND      MOCLDY    59  57  94 CALM      29.88S
JUNEAU         CLOUDY    62  59  91 CALM      29.88F
$$

LSZ147-162-271200-
LAKE SUPERIOR

STATION/POSITION TIME  TEMP    WIND        PRES    WAVE
                       AIR SEA DIR/SP/G            HT/PER
                 (UTC) (F)     (DEG/KT/KT) (MB)    (FT/S)
W MID LAKE BUOY  0950   39 38  150/  4/  6 1011.6F   1
DEVILS ISLAND    1000   43      70/  1/  2 1011.8R
SAXON HARBOR     1020   45     170/  2/  6 1011.2R
$$

LMZ867-665-643>646-271200-
LAKE MICHIGAN

STATION/POSITION TIME  TEMP    WIND        PRES    WAVE
                       AIR SEA DIR/SP/G            HT/PER
                 (UTC) (F)     (DEG/KT/KT) (MB)    (FT/S)
CHAMBERS ISLAND  1000   54        CALM     1012.2S
N MID LAKE BUOY  0950   47 45  160/  4/  4 1012.4S   1/ 4
NORTHPORT PIER   1000   51     150/  3/  6 1012.2S
SISTER BAY       1004   56        CALM       N/A
ALGOMA LAKESHORE 1017             CALM       N/A
KEWAUNEE LAKESHO 1000           40/  3/  4 1011.5R
SHEBOYGAN LAKESH 1000   54     170/  4/  5 1012.2R
PORT WASHINGTON  1000   60     280/  3/  4 1012.2F
S MID LAKE BUOY  0950   54 50  170/ 10/ 10 1012.2R   1
KENOSHA   LAKESH 1000   61     170/  4/  7 1011.5F
$$

TC  - TEMPERATURE IN CELSIUS
VSB - VISIBILITY IN STATUTE MILES
WCI - WIND CHILL INDEX
HX  - HEAT INDEX





USA.gov is the U.S. government's official web portal to all federal, state and local government web resources and services.